Theta_e
311 310 306 306 303 306 304 305 303 304 310 311 313 309 308 309 308 310 316 317 318 321 319 322 316 318 319 321 320 320 321 322 322
302 303 302 302 302 302 302 302 302 302 304 306 307 307 307 306 305 307 313 316 317 317 318 319 319 317 317 318 318 318 318 319 321
302 301 301 301 301 302 302 302 302 302 302 303 304 304 305 305 303 304 309 314 315 315 315 315 316 318 317 317 318 317 317 317 317
301 301 301 301 301 301 301 302 302 302 302 302 302 302 303 303 303 302 303 312 314 312 311 314 314 316 316 315 316 317 317 316 316
301 301 301 301 301 301 301 301 302 302 302 302 302 302 302 302 302 302 302 301 313 311 305 305 313 314 313 314 314 316 315 315 315
302 302 301 301 301 301 301 301 301 301 301 302 302 302 302 302 302 302 302 302 301 303 302 302 304 310 314 312 312 313 314 313 313
302 302 302 302 301 301 301 301 301 301 301 302 302 302 302 302 302 302 302 301 301 301 301 301 302 303 309 310 310 312 312 312 312
302 302 302 302 302 302 302 301 301 301 301 301 301 302 302 302 302 302 301 301 301 301 301 301 301 301 301 306 304 306 309 309 310
303 303 303 303 303 302 302 302 302 302 302 302 302 302 302 302 302 302 302 301 301 301 301 301 301 301 302 302 307 308 306 308 307
303 303 303 303 303 303 303 303 302 302 302 302 302 302 302 302 302 302 302 302 302 301 301 301 301 302 304 303 303 305 308 309 307
303 303 303 303 304 304 304 304 304 304 304 303 303 303 303 303 303 303 303 302 302 302 301 301 302 304 304 306 308 309 309 309 309
304 305 305 304 304 304 305 305 305 306 306 306 306 306 306 306 305 304 304 303 303 302 302 302 302 303 306 307 307 308 309 311 311
305 306 306 306 306 306 306 306 307 307 307 308 308 308 308 308 307 307 306 304 304 304 303 302 302 302 302 305 309 310 310 309 310
307 307 307 307 307 307 307 307 308 308 308 308 309 308 308 308 308 307 307 306 306 305 304 304 303 302 302 303 307 310 312 312 312
308 308 308 308 308 308 308 308 308 308 308 309 310 310 309 309 308 308 307 307 306 305 305 305 304 304 303 303 304 307 310 312 312
309 310 310 309 310 309 309 309 308 308 308 309 310 310 310 309 308 308 308 307 307 306 306 306 305 305 304 304 304 303 306 309 311
311 311 310 310 310 310 310 309 309 309 308 307 308 309 309 308 309 308 308 308 307 307 306 306 306 306 305 305 305 304 304 303 303
311 311 311 311 311 311 310 310 310 309 309 308 307 308 307 307 309 308 308 308 307 307 307 307 306 306 306 306 305 305 305 304 304
311 311 311 311 311 311 311 311 310 310 310 309 309 308 307 307 307 308 308 308 307 308 308 307 307 307 307 307 306 306 305 305 304
311 311 311 312 312 312 312 311 311 311 310 310 309 308 308 307 307 307 308 308 308 308 308 308 307 307 307 307 306 306 305 305 305
Wind_Speed
7 7 9 10 10 11 12 13 13 13 12 12 14 14 14 12 12 10 16 13 13 14 15 15 11 11 9 13 10 9 9 13 12
7 8 9 9 10 10 11 11 12 12 11 11 11 13 13 12 13 13 12 12 10 9 10 11 13 11 10 8 8 9 6 7 10
6 6 7 8 8 8 8 9 9 10 9 10 10 12 12 13 13 12 11 12 9 7 7 7 6 9 10 9 10 10 10 7 4
4 6 6 7 8 8 8 8 8 9 10 9 9 10 10 11 12 12 11 11 10 10 7 7 9 6 6 9 7 7 9 9 7
3 4 5 6 6 6 6 6 7 7 8 7 7 8 9 10 10 10 10 10 9 9 11 9 7 8 7 8 6 6 9 9 9
2 2 3 4 4 5 6 6 6 7 7 8 8 9 9 8 9 9 9 10 10 10 11 11 9 6 7 7 7 3 8 8 7
1 2 3 4 5 5 6 6 7 7 7 7 8 8 8 8 8 9 10 10 11 10 10 10 10 9 8 8 8 6 7 9 8
3 4 5 5 6 6 7 7 7 8 8 8 9 9 8 9 9 9 9 9 10 11 11 12 11 9 8 8 9 8 8 7 8
4 4 5 5 6 6 7 7 8 9 10 10 10 10 10 10 10 9 10 10 10 11 11 11 12 12 10 9 8 10 10 9 9
4 5 5 6 6 7 8 8 9 10 10 11 13 12 12 12 12 10 11 11 10 10 12 12 12 13 13 13 12 11 10 11 12
4 5 5 6 7 8 8 9 10 10 11 11 13 13 13 14 14 13 12 13 12 11 11 12 13 13 13 14 14 14 14 13 12
5 5 6 7 8 9 10 10 11 11 13 12 12 14 14 14 15 15 15 14 14 13 13 13 13 14 14 15 16 15 15 15 15
5 5 6 8 9 9 11 11 12 13 15 14 13 14 15 16 16 15 14 14 13 12 12 13 13 14 15 15 17 17 18 17 17
6 5 6 8 8 9 11 12 14 13 14 17 16 15 17 14 10 9 11 11 11 10 10 11 13 14 15 16 17 18 19 19 19
7 6 7 9 9 10 13 14 14 16 19 21 21 20 10 10 0 19 10 8 8 9 10 11 12 13 15 17 19 19 19 20 21
8 7 8 10 11 12 14 16 18 18 19 23 22 13 11 4 5 20 12 6 6 12 12 13 14 14 15 17 18 20 20 21 22
9 9 9 11 13 13 14 16 18 19 18 21 23 13 9 3 25 5 10 1 13 14 13 16 15 17 18 19 20 20 21 21 22
10 10 11 12 14 14 14 15 17 18 17 16 13 8 7 30 8 18 4 14 19 19 19 18 19 20 20 20 21 21 22 22 22
10 11 12 13 13 13 13 14 15 17 16 16 14 14 18 14 16 15 27 21 27 23 22 21 21 19 20 20 21 21 20 21 22
11 12 13 13 13 12 12 13 14 15 16 16 16 17 18 19 23 35 33 33 30 31 26 25 23 18 19 18 18 18 20 23 23
Wind_Direction
70 63 56 53 52 49 44 43 46 55 59 52 49 72 71 69 57 53 52 48 66 48 44 29 36 49 63 52 35 48 57 60 40
59 62 56 51 47 45 41 37 40 45 48 45 42 50 55 50 44 49 53 49 41 52 55 60 46 32 38 51 35 37 44 53 57
69 66 59 54 51 48 44 38 39 41 42 41 32 35 36 34 34 40 38 49 40 34 42 37 57 48 38 37 41 28 31 32 56
63 55 47 43 37 33 32 34 35 31 32 31 30 32 29 26 27 31 27 38 23 25 23 38 32 52 14 27 22 19 28 29 34
43 37 44 40 32 28 26 24 27 26 19 20 19 20 20 20 18 18 14 16 17 10 12 19 32 18 8 15 31 17 23 10 12
51 58 65 52 31 23 16 22 18 16 10 3 8 8 9 6 4 2 1 5 3 357 7 11 11 7 1 359 10 350 356 358 356
50 47 41 42 33 16 10 10 9 2 0 355 353 353 352 350 352 351 345 350 349 347 344 348 354 353 348 344 343 345 345 352 347
4 6 7 6 10 4 1 356 356 353 351 347 341 339 336 334 338 333 331 333 335 335 337 337 337 337 337 331 338 334 328 328 334
359 358 358 357 0 354 354 351 348 346 343 339 335 331 332 326 327 323 320 322 322 323 323 323 323 324 324 321 313 317 322 319 322
345 338 342 344 346 347 348 348 346 344 338 337 333 330 329 324 318 316 315 315 316 314 312 314 314 314 313 314 313 309 305 307 316
323 324 330 332 340 338 341 343 342 340 337 336 325 325 322 319 315 313 309 305 305 307 307 306 304 303 301 300 300 301 303 303 299
316 322 327 327 331 334 339 335 338 340 336 334 324 321 319 316 311 309 307 304 302 302 302 304 305 302 297 293 291 290 291 293 293
300 314 325 324 330 332 331 333 333 332 329 329 326 324 318 312 306 306 306 304 303 300 302 302 304 303 303 299 291 285 284 284 284
295 305 310 312 320 324 322 324 321 326 323 318 323 321 313 306 315 339 325 311 314 313 310 308 308 306 301 297 293 288 283 283 285
282 288 295 300 310 317 313 316 318 324 323 324 329 330 322 329 223 344 324 319 317 320 322 314 313 309 309 304 298 291 285 283 284
278 286 289 295 301 303 309 313 313 316 322 323 327 348 334 318 298 334 343 311 345 337 321 316 310 311 308 307 304 300 292 285 280
268 278 288 293 298 301 304 304 308 313 320 324 333 336 342 165 322 330 333 43 336 328 319 318 311 309 304 302 300 298 295 293 290
267 282 291 293 296 301 302 304 302 307 312 317 315 329 308 319 313 323 325 318 325 325 321 320 315 313 307 302 296 292 289 289 289
276 286 291 292 293 297 297 295 298 299 305 303 303 296 296 312 314 309 308 315 320 321 326 322 320 319 312 305 300 292 284 278 281
280 288 288 291 289 291 291 291 292 294 297 300 300 297 293 289 288 304 313 316 321 323 326 326 328 325 317 313 311 309 296 286 282